Terminal Aerodrome Forecast
Issued by NWS Chicago, IL

Home | Current Version | Previous Version | Text Only | Print | Product List | Glossary Off
Versions: 1 2 3 4 5 6 7 8 9 10 11 12 13 14 15 16 17 18 19 20 21 22 23 24 25 26 27 28 29

053
FTUS43 KLOT 201137
TAFRFD
TAF
KRFD 201137Z 2012/2112 14009KT 2SM BR SCT003 BKN250
      TEMPO 2013/2015 1/2SM FG BKN003
     FM201600 15012KT 4SM BR FEW005 BKN015 OVC200
     FM201900 16015G25KT P6SM SCT035 BKN080 OVC150
     FM210300 21015G25KT 6SM -SHRA SCT015 OVC035 WS015/19045KT
      TEMPO 2104/2106 3SM SHRA BR SCT008 OVC015
     FM210800 27007KT P6SM BKN008=

USA.gov is the U.S. government's official web portal to all federal, state and local government web resources and services.